Date_and_time,latitude,longitude,wind_speed,RelWindDirFrom,WindDirFrom,air_pressure,air_temperature,relative_humidity,Temp,platform_speed_wrt_ground,air_pressure_at_mean_sea_level,platform_orientation
2019-12-19 23:50,50.63045,-96.9807566666667,11.9,13.4,51,998.04,-12.7,79,0.59,0.0,1027.63,0.0
2019-12-20 00:00,50.6304683333333,-96.9807683333333,11.3,12.7,50,998.14,-12.6,79,0.59,0.0,1027.72,43.8
2019-12-20 00:10,50.6304616666667,-96.9807633333333,9.8,11.2,54,998.38,-12.5,77,0.59,0.0,1027.96,43.8
2019-12-20 00:20,50.6304616666667,-96.9807566666667,9.2,10.6,53,998.46,-12.4,78,0.59,0.0,1028.02,43.8
2019-12-20 00:30,50.6304616666667,-96.98076,8.7,10.3,51,998.51,-12.3,78,0.60,0.0,1028.07,43.8
2019-12-20 00:40,50.6304533333333,-96.980775,9.3,10.9,55,998.49,-12.1,77,0.60,0.0,1028.03,43.8
2019-12-20 00:50,50.6304533333333,-96.9807616666667,9.4,11.1,58,998.48,-12.0,78,0.60,0.0,1028.00,43.8
2019-12-20 01:00,50.6304516666667,-96.9807583333333,10.6,12.4,58,998.35,-12.0,77,0.60,0.0,1027.86,12.6
2019-12-20 01:10,50.630455,-96.9807616666667,10.8,12.3,58,998.21,-11.9,78,0.61,0.0,1027.71,12.6
2019-12-20 01:20,50.630455,-96.9807666666667,11.2,13.0,63,998.18,-11.9,77,0.61,0.0,1027.68,12.6
2019-12-20 01:30,50.6304616666667,-96.9807666666667,11.8,13.9,66,998.14,-11.8,77,0.60,0.0,1027.64,12.6
2019-12-20 01:40,50.630465,-96.9807683333333,12.1,14.2,69,998.19,-11.7,78,0.60,0.0,1027.68,12.6
2019-12-20 01:50,50.6304616666667,-96.98077,12.7,14.3,71,998.20,-11.7,78,0.61,0.0,1027.69,12.6
2019-12-20 02:00,50.63046,-96.980765,12.9,14.6,73,998.13,-11.6,78,0.61,0.0,1027.60,311.7
2019-12-20 02:10,50.6304616666667,-96.9807666666667,12.6,14.6,74,998.07,-11.6,79,0.61,0.0,1027.53,311.7
2019-12-20 02:20,50.630455,-96.980745,12.7,14.9,76,997.96,-11.5,79,0.61,0.0,1027.40,311.7
2019-12-20 02:30,50.63046,-96.9807566666667,12.3,14.3,75,997.90,-11.5,79,0.61,0.0,1027.33,311.7
2019-12-20 02:40,50.6304583333333,-96.9807566666667,11.7,13.8,77,997.96,-11.4,80,0.61,0.0,1027.39,311.7
2019-12-20 02:50,50.6304583333333,-96.9807633333333,10.7,12.5,77,997.95,-11.4,80,0.60,0.0,1027.37,311.7
2019-12-20 03:00,50.6304566666667,-96.9807666666667,10.1,11.8,77,997.97,-11.4,80,0.60,0.0,1027.39,360.0
2019-12-20 03:10,50.630455,-96.980765,9.5,11.7,77,997.93,-11.4,81,0.60,0.0,1027.34,360.0
2019-12-20 03:20,50.6304533333333,-96.9807616666667,9.2,10.8,79,997.97,-11.3,81,0.60,0.0,1027.38,360.0
2019-12-20 03:30,50.6304516666667,-96.9807616666667,8.8,10.4,78,997.97,-11.2,81,0.60,0.0,1027.37,360.0
2019-12-20 03:40,50.6304533333333,-96.9807633333333,7.8,9.7,81,997.99,-11.1,81,0.60,0.0,1027.38,360.0
2019-12-20 03:50,50.6304533333333,-96.9807616666667,7.6,9.6,84,998.10,-11.0,80,0.59,0.0,1027.48,360.0
2019-12-20 04:00,50.6304533333333,-96.9807633333333,8.4,10.9,86,998.05,-10.9,80,0.59,0.0,1027.42,270.0
2019-12-20 04:10,50.63043,-96.9807766666667,9.1,11.0,89,997.95,-10.8,79,0.60,0.0,1027.31,270.0
2019-12-20 04:20,50.630455,-96.9807833333333,9.2,11.3,90,997.88,-10.7,79,0.60,0.0,1027.23,270.0
2019-12-20 04:30,50.6304583333333,-96.980785,9.1,11.0,90,997.81,-10.7,79,0.60,0.0,1027.15,270.0
2019-12-20 04:40,50.6304683333333,-96.9807383333333,8.7,11.3,90,997.82,-10.7,79,0.60,0.0,1027.17,270.0
2019-12-20 04:50,50.6304583333333,-96.980755,8.9,11.2,90,997.89,-10.6,79,0.60,0.0,1027.24,270.0
2019-12-20 05:00,50.6304566666667,-96.98076,9.3,11.2,94,998.01,-10.6,79,0.60,0.0,1027.35,167.4
2019-12-20 05:10,50.6304566666667,-96.9807616666667,9.0,11.3,94,998.09,-10.5,79,0.60,0.0,1027.42,167.4
2019-12-20 05:20,50.630455,-96.9807583333333,9.0,11.0,95,998.17,-10.5,79,0.60,0.0,1027.50,167.4
2019-12-20 05:30,50.6304566666667,-96.98076,8.6,11.0,94,998.12,-10.5,80,0.60,0.0,1027.45,167.4
2019-12-20 05:40,50.6304566666667,-96.98076,8.1,10.0,96,998.25,-10.5,80,0.60,0.0,1027.58,167.4
2019-12-20 05:50,50.63044,-96.98074,7.4,9.1,101,998.39,-10.5,80,0.60,0.0,1027.71,167.4
2019-12-20 06:00,50.630445,-96.9806966666667,6.5,8.3,95,998.14,-10.5,81,0.60,0.0,1027.45,104.0
2019-12-20 06:10,50.6304516666667,-96.98076,8.0,9.9,97,997.99,-10.3,81,0.60,0.0,1027.28,104.0
2019-12-20 06:20,50.6304483333333,-96.9807516666667,8.9,11.2,97,997.89,-10.2,80,0.60,0.0,1027.17,104.0
2019-12-20 06:30,50.6304533333333,-96.9807616666667,9.0,11.5,100,997.90,-10.2,80,0.61,0.0,1027.18,104.0
2019-12-20 06:40,50.630455,-96.9807616666667,10.2,12.3,102,997.76,-10.1,80,0.61,0.0,1027.03,104.0
2019-12-20 06:50,50.630455,-96.9807616666667,10.5,12.6,102,997.62,-10.0,80,0.61,0.0,1026.88,104.0
2019-12-20 07:00,50.6304566666667,-96.9807616666667,10.3,11.8,101,997.50,-10.0,80,0.61,0.0,1026.75,90.0
2019-12-20 07:10,50.6304566666667,-96.9807633333333,10.0,12.0,105,997.47,-10.1,80,0.60,0.0,1026.72,90.0
2019-12-20 07:20,50.6304583333333,-96.980765,10.3,12.3,107,997.51,-10.1,80,0.61,0.0,1026.76,90.0
2019-12-20 07:30,50.6304583333333,-96.980765,9.8,12.0,102,997.35,-10.1,80,0.61,0.0,1026.60,90.0
2019-12-20 07:40,50.6304733333333,-96.9807516666667,10.3,13.0,96,996.95,-10.2,80,0.61,0.0,1026.19,90.0
2019-12-20 07:50,50.6304716666667,-96.9807633333333,11.1,13.7,100,996.87,-10.2,80,0.61,0.0,1026.10,90.0
2019-12-20 08:00,50.63047,-96.980765,11.9,14.3,102,996.79,-10.1,79,0.62,0.0,1026.01,360.0
2019-12-20 08:10,50.6304683333333,-96.9807666666667,11.9,13.9,102,996.70,-10.1,78,0.63,0.0,1025.92,360.0
2019-12-20 08:20,50.6304633333333,-96.9807666666667,12.1,14.9,106,996.69,-10.1,78,0.63,0.0,1025.90,360.0
2019-12-20 08:30,50.6304866666667,-96.9808,12.9,15.0,107,996.56,-10.1,77,0.63,0.0,1025.76,360.0
2019-12-20 08:40,50.630475,-96.9807816666667,12.4,14.7,111,996.68,-10.2,77,0.62,0.0,1025.88,360.0
2019-12-20 08:50,50.6304733333333,-96.9807783333333,13.3,15.8,105,996.47,-10.2,77,0.62,0.0,1025.67,360.0
2019-12-20 09:00,50.6304716666667,-96.9807766666667,12.0,15.3,103,996.31,-10.2,77,0.62,0.0,1025.51,306.0
2019-12-20 09:10,50.63045,-96.98076,11.5,13.8,107,996.27,-10.3,77,0.62,0.0,1025.48,306.0
2019-12-20 09:20,50.630465,-96.980775,10.6,13.5,112,996.34,-10.4,77,0.61,0.0,1025.55,306.0
2019-12-20 09:30,50.630465,-96.9807683333333,10.2,12.9,112,996.28,-10.4,77,0.62,0.0,1025.50,306.0
2019-12-20 09:40,50.63046,-96.980765,9.6,11.5,113,996.26,-10.4,78,0.62,0.0,1025.47,306.0
2019-12-20 09:50,50.6304566666667,-96.9807533333333,9.6,12.3,122,996.17,-10.3,78,0.61,0.0,1025.38,306.0
2019-12-20 10:00,50.6304566666667,-96.98075,9.3,11.0,125,996.18,-10.4,77,0.61,0.0,1025.39,90.0
2019-12-20 10:10,50.6304616666667,-96.9807633333333,8.1,9.4,123,996.07,-10.5,78,0.61,0.0,1025.28,90.0
2019-12-20 10:20,50.6304616666667,-96.98076,7.0,9.0,125,995.99,-10.5,78,0.61,0.0,1025.20,90.0
2019-12-20 10:30,50.63046,-96.9807633333333,5.3,7.0,142,996.10,-11.2,79,0.60,0.0,1025.35,90.0
2019-12-20 10:40,50.63046,-96.980765,6.3,8.3,129,995.92,-10.8,78,0.60,0.0,1025.14,90.0
2019-12-20 10:50,50.6304716666667,-96.9807633333333,6.7,8.1,122,995.71,-10.7,79,0.60,0.0,1024.92,90.0
2019-12-20 11:00,50.6304466666667,-96.9807733333333,7.6,8.9,118,995.53,-10.7,79,0.60,0.0,1024.75,360.0
2019-12-20 11:10,50.630455,-96.980765,7.7,8.8,116,995.37,-10.8,80,0.60,0.0,1024.59,360.0
2019-12-20 11:20,50.6304583333333,-96.9807666666667,7.4,8.4,111,995.09,-10.9,81,0.60,0.0,1024.32,360.0
2019-12-20 11:30,50.6304583333333,-96.9807633333333,6.2,7.2,112,994.98,-11.0,82,0.60,0.0,1024.21,360.0
2019-12-20 11:40,50.6304583333333,-96.9807633333333,5.9,7.6,112,994.96,-11.1,83,0.60,0.0,1024.18,360.0
2019-12-20 11:50,50.6304566666667,-96.980765,6.8,8.3,119,994.95,-11.1,82,0.60,0.0,1024.18,360.0
2019-12-20 12:00,50.6304566666667,-96.980765,7.7,10.3,123,994.91,-11.2,82,0.60,0.0,1024.15,360.0
2019-12-20 12:10,50.6304633333333,-96.9807966666667,9.7,11.5,120,994.66,-11.3,81,0.60,0.0,1023.89,360.0
2019-12-20 12:20,50.6304633333333,-96.9807766666667,9.3,11.2,119,994.48,-11.4,81,0.60,0.0,1023.75,360.0
2019-12-20 12:30,50.6304833333333,-96.9807433333333,9.3,10.9,117,994.27,-11.5,81,0.60,0.0,1023.52,360.0
2019-12-20 12:40,50.630465,-96.98076,10.6,12.6,114,993.99,-11.6,82,0.60,0.0,1023.23,360.0
2019-12-20 12:50,50.6304733333333,-96.9807866666667,10.8,12.5,114,993.65,-11.6,82,0.60,0.0,1022.89,360.0
2019-12-20 13:00,50.6304583333333,-96.9807716666667,9.3,11.8,124,993.72,-11.7,82,0.60,0.0,1022.97,293.6
2019-12-20 13:10,50.630455,-96.9807666666667,8.5,10.8,140,993.97,-12.3,82,0.60,0.0,1023.26,293.6
2019-12-20 13:20,50.630455,-96.98077,9.7,12.4,127,993.79,-11.9,82,0.60,0.0,1023.06,293.6
2019-12-20 13:30,50.630455,-96.9807683333333,10.8,12.5,116,993.39,-11.9,82,0.60,0.0,1022.66,293.6
2019-12-20 13:40,50.6304566666667,-96.9807716666667,10.8,12.6,115,993.19,-11.9,83,0.60,0.0,1022.46,293.6
2019-12-20 13:50,50.6304566666667,-96.98077,10.5,12.4,123,993.20,-11.9,83,0.60,0.0,1022.47,293.6
2019-12-20 14:00,50.6304566666667,-96.98077,9.6,12.0,129,993.35,-12.0,83,0.60,0.0,1022.63,48.3
2019-12-20 14:10,50.63046,-96.9807716666667,9.7,13.3,137,993.42,-12.3,83,0.60,0.0,1022.72,48.3
2019-12-20 14:20,50.6304716666667,-96.980785,10.5,13.1,131,993.27,-12.1,83,0.61,0.0,1022.57,48.3
2019-12-20 14:30,50.630455,-96.9807716666667,9.5,12.3,139,993.38,-12.6,84,0.61,0.0,1022.71,48.3
2019-12-20 14:40,50.6304516666667,-96.980765,8.9,12.5,148,993.76,-12.8,84,0.61,0.0,1023.12,48.3
2019-12-20 14:50,50.6304516666667,-96.9807683333333,11.5,14.7,153,993.95,-12.8,85,0.61,0.0,1023.32,48.3
2019-12-20 15:00,50.6304533333333,-96.980765,12.3,15.6,159,994.03,-12.8,88,0.61,0.0,1023.44,0.0
2019-12-20 15:10,50.6304533333333,-96.980765,14.1,17.1,156,994.18,-12.8,89,0.61,0.0,1023.56,0.0
2019-12-20 15:20,50.630455,-96.980765,13.1,16.1,155,994.10,-12.8,90,0.60,0.0,1023.49,0.0
2019-12-20 15:30,50.6304733333333,-96.98077,12.3,15.8,155,993.91,-12.9,91,0.60,0.0,1023.29,0.0
2019-12-20 15:40,50.6304633333333,-96.9807733333333,12.7,15.9,161,993.91,-12.8,92,0.60,0.0,1023.29,0.0
2019-12-20 15:50,50.6304616666667,-96.9807783333333,12.4,15.0,153,993.72,-12.8,93,0.60,0.0,1023.10,0.0
2019-12-20 16:00,50.63046,-96.9807733333333,12.7,15.9,153,993.51,-12.7,93,0.60,0.0,1022.90,0.0
2019-12-20 16:10,50.6304616666667,-96.9807733333333,11.6,14.5,156,993.62,-12.5,93,0.61,0.0,1022.99,0.0
2019-12-20 16:20,50.6304616666667,-96.9807766666667,10.7,13.4,157,993.55,-12.1,93,0.60,0.0,1022.92,0.0
2019-12-20 16:30,50.6304583333333,-96.9807683333333,11.4,13.9,158,993.59,-11.9,94,0.61,0.0,1022.96,0.0
2019-12-20 16:40,50.6304583333333,-96.98076,10.8,13.6,159,993.49,-11.7,94,0.60,0.0,1022.84,0.0
2019-12-20 16:50,50.63046,-96.9807616666667,11.3,13.8,155,993.34,-11.5,94,0.60,0.0,1022.68,0.0
2019-12-20 17:00,50.6304483333333,-96.98076,10.7,12.6,158,993.22,-11.3,94,0.60,0.0,1022.54,131.7
2019-12-20 17:10,50.63045,-96.9807616666667,11.3,13.5,165,993.24,-11.2,95,0.60,0.0,1022.56,131.7
2019-12-20 17:20,50.630455,-96.9807766666667,11.1,15.1,165,993.03,-11.0,95,0.60,0.0,1022.33,131.7
2019-12-20 17:30,50.630455,-96.98077,12.2,15.3,166,992.97,-10.9,95,0.61,0.0,1022.27,131.7
2019-12-20 17:40,50.630455,-96.98077,12.5,14.9,172,992.85,-10.8,95,0.61,0.0,1022.14,131.7
2019-12-20 17:50,50.63047,-96.98079,11.5,15.0,176,992.89,-10.7,96,0.61,0.0,1022.17,131.7
2019-12-20 18:00,50.6304583333333,-96.9807666666667,10.1,12.8,172,992.83,-10.6,96,0.61,0.0,1022.08,360.0
2019-12-20 18:10,50.6304433333333,-96.9807516666667,10.4,13.1,182,992.76,-10.5,96,0.61,0.0,1021.99,360.0
2019-12-20 18:20,50.63045,-96.9807666666667,9.7,13.2,180,992.66,-10.4,96,0.61,0.0,1021.87,360.0
2019-12-20 18:30,50.63045,-96.98076,8.6,11.0,185,992.57,-10.4,96,0.61,0.0,1021.76,360.0
2019-12-20 18:40,50.6304516666667,-96.9807583333333,9.9,11.9,183,992.49,-10.4,96,0.61,0.0,1021.67,360.0
2019-12-20 18:50,50.6304533333333,-96.98076,10.3,12.1,164,992.36,-10.5,96,0.61,0.0,1021.53,360.0
2019-12-20 19:00,50.630455,-96.9807616666667,9.7,11.8,161,992.00,-10.4,96,0.61,0.0,1021.15,125.3
2019-12-20 19:10,50.6304566666667,-96.9807633333333,9.7,12.4,159,991.74,-10.3,96,0.61,0.0,1020.87,125.3
2019-12-20 19:20,50.6304566666667,-96.980765,10.4,12.6,162,991.53,-10.2,96,0.61,0.0,1020.63,125.3
2019-12-20 19:30,50.630455,-96.980765,11.0,13.9,168,991.38,-10.0,96,0.62,0.0,1020.47,125.3
2019-12-20 19:40,50.630455,-96.9807666666667,10.8,13.0,166,991.36,-9.9,97,0.62,0.0,1020.43,125.3
2019-12-20 19:50,50.6304566666667,-96.98076,11.0,13.9,155,991.17,-9.9,97,0.62,0.0,1020.23,125.3
2019-12-20 20:00,50.6304583333333,-96.980765,11.0,12.6,161,991.35,-9.8,97,0.63,0.0,1020.41,345.5
2019-12-20 20:10,50.6304466666667,-96.9807566666667,10.4,12.1,162,991.36,-9.7,97,0.63,0.0,1020.41,345.5
2019-12-20 20:20,50.6304533333333,-96.9807666666667,10.0,12.0,168,991.04,-9.6,98,0.63,0.0,1020.06,345.5
2019-12-20 20:30,50.6304516666667,-96.9807716666667,9.5,11.9,167,990.92,-9.5,97,0.63,0.0,1019.94,345.5
2019-12-20 20:40,50.6304516666667,-96.9807716666667,9.3,10.7,160,990.67,-9.5,97,0.63,0.0,1019.68,345.5
2019-12-20 20:50,50.6304533333333,-96.9807733333333,9.4,11.2,163,990.60,-9.4,97,0.63,0.0,1019.61,345.5
2019-12-20 21:00,50.6304533333333,-96.980775,9.9,12.5,163,990.51,-9.3,95,0.63,0.0,1019.51,192.6
2019-12-20 21:10,50.6304533333333,-96.980775,10.5,12.6,165,990.51,-9.2,94,0.64,0.0,1019.49,192.6
2019-12-20 21:20,50.6304533333333,-96.9807766666667,10.3,12.5,168,990.60,-9.1,94,0.64,0.0,1019.56,192.6
2019-12-20 21:30,50.630445,-96.9807866666667,10.5,12.6,169,990.51,-9.0,94,0.64,0.0,1019.47,192.6
2019-12-20 21:40,50.6304533333333,-96.98078,10.6,12.3,169,990.46,-8.9,94,0.64,0.0,1019.41,192.6
2019-12-20 21:50,50.6304516666667,-96.9807783333333,10.6,12.8,171,990.53,-8.8,94,0.65,0.0,1019.46,192.6
2019-12-20 22:00,50.6304516666667,-96.98078,10.2,13.6,164,990.36,-8.7,94,0.65,0.0,1019.28,270.0
2019-12-20 22:10,50.6304516666667,-96.9807816666667,10.8,13.0,161,990.24,-8.7,94,0.65,0.0,1019.15,270.0
2019-12-20 22:20,50.6304533333333,-96.9807816666667,9.8,12.2,163,990.20,-8.7,95,0.66,0.0,1019.11,270.0
2019-12-20 22:30,50.6304533333333,-96.98078,7.6,9.3,174,990.41,-8.6,94,0.66,0.0,1019.32,270.0
2019-12-20 22:40,50.6304516666667,-96.9807766666667,8.2,10.4,168,990.39,-8.7,94,0.66,0.0,1019.29,270.0
2019-12-20 22:50,50.6304516666667,-96.9807766666667,9.6,11.0,164,990.30,-8.6,94,0.65,0.0,1019.20,270.0
2019-12-20 23:00,50.630435,-96.980765,9.0,10.4,162,990.04,-8.7,94,0.65,0.0,1018.93,360.0
2019-12-20 23:10,50.6304466666667,-96.9807633333333,8.7,10.5,162,989.94,-8.7,94,0.66,0.0,1018.82,360.0
2019-12-20 23:20,50.6304516666667,-96.98077,9.5,11.4,162,989.83,-8.8,94,0.66,0.0,1018.70,360.0
2019-12-20 23:30,50.6304483333333,-96.9807616666667,8.7,10.9,161,989.72,-8.8,95,0.66,0.0,1018.58,360.0
